Cloud_Cover
100 100 100 100 98 23 5 5 5 5 12 5 5 11 13 17 20 64 61 72 43 94 90 86 100 100 100 42 38 73 1 100 94 0 88 20 43 23 97 100 100 11 0
100 95 100 100 100 100 5 5 5 26 71 22 5 5 7 3 13 21 34 16 18 9 9 95 100 100 92 23 4 100 100 61 100 96 67 99 100 97 16 48 56 4 1
100 100 100 98 100 100 30 5 5 15 77 76 48 10 13 10 2 60 71 48 6 41 10 27 1 2 98 52 10 53 82 100 60 76 0 1 75 99 92 81 14 0 0
97 100 97 100 100 98 32 5 5 39 51 48 64 22 6 5 11 100 53 100 5 4 63 6 1 6 2 88 100 95 21 12 13 100 16 22 33 81 2 36 0 0 4
98 100 100 100 100 99 60 26 5 6 10 62 81 34 22 56 100 100 37 100 5 1 12 46 0 3 3 63 91 87 65 100 100 12 79 3 54 1 0 0 0 0 0
100 99 100 100 100 100 100 20 5 52 66 74 100 99 74 84 100 100 100 100 5 4 0 0 0 2 0 0 73 13 100 100 98 92 65 2 24 0 0 0 2 0 0
100 100 100 100 100 100 99 52 69 100 100 100 100 100 100 98 100 100 100 56 5 4 0 0 0 5 0 0 2 34 98 11 100 17 46 5 5 14 2 6 0 0 0
100 100 100 97 96 100 100 39 100 100 100 100 86 100 100 100 100 100 100 19 5 5 5 5 5 0 0 16 18 1 21 9 9 40 4 5 5 5 2 1 0 0 2
100 100 92 100 100 100 100 100 100 99 95 88 82 76 100 100 100 100 100 10 5 5 5 5 5 4 2 5 0 0 2 2 19 4 6 10 6 23 4 0 0 0 0
100 100 100 100 100 100 100 80 100 100 100 30 88 90 100 100 100 100 70 10 5 5 5 5 5 5 5 5 14 2 0 0 0 5 8 5 6 28 7 0 1 0 0
100 100 100 100 100 100 74 100 100 98 100 58 98 100 100 100 100 100 62 5 20 41 6 5 5 26 45 5 2 0 0 1 0 4 5 5 3 5 8 7 4 4 2
100 100 100 100 100 95 98 100 100 63 100 79 99 100 100 96 100 85 6 5 22 97 5 5 10 40 61 5 0 1 4 5 4 0 3 5 5 5 5 41 31 5 5
100 100 100 100 100 92 100 99 100 86 59 80 100 100 53 75 30 43 36 5 19 99 33 73 51 81 60 6 9 4 0 5 7 5 5 5 6 5 6 33 14 8 5
100 100 100 100 100 100 99 100 100 98 37 96 79 44 8 25 99 5 67 6 61 50 91 81 66 56 50 47 93 5 4 4 22 5 5 5 7 5 21 6 28 5 5
100 100 100 100 100 100 100 100 100 99 42 34 100 67 100 100 100 100 100 50 5 10 100 98 100 82 92 100 60 5 5 1 10 47 5 5 5 5 76 12 10 5 5
100 93 96 100 100 100 100 100 100 100 80 76 97 90 100 100 77 100 100 100 15 14 100 100 82 79 92 100 26 23 6 5 88 5 5 6 5 5 50 88 15 25 5
100 100 99 100 100 100 100 100 100 100 100 100 88 82 94 100 62 100 100 79 93 96 81 97 92 100 91 97 85 44 9 65 95 94 27 28 7 5 69 92 29 17 5
100 100 82 100 100 100 100 100 100 100 100 100 100 95 81 100 100 100 100 22 96 97 100 45 97 100 100 82 82 97 84 99 49 16 99 71 68 14 100 100 82 35 5
100 100 100 100 100 100 100 100 100 100 100 100 100 100 99 100 96 100 100 30 70 76 100 100 79 84 100 48 44 93 94 93 100 100 100 100 5 46 94 50 100 5 58
100 100 95 100 100 100 100 100 100 100 100 100 100 100 88 100 100 100 100 82 79 100 100 100 88 55 69 97 90 83 100 34 100 100 68 100 62 7 65 33 90 38 5
100 100 100 100 100 100 100 100 100 100 100 100 100 100 100 100 100 100 100 79 81 100 100 100 100 92 100 99 73 99 30 21 100 100 88 100 37 49 60 100 100 100 27
100 100 100 100 100 100 100 100 100 100 100 100 100 100 100 100 100 100 100 100 100 100 100 100 47 91 100 20 100 100 92 64 76 100 100 100 100 100 93 6 82 100 7
100 100 100 100 100 100 100 100 100 100 100 100 100 100 100 100 100 100 100 60 97 100 100 100 87 100 100 83 92 94 89 40 96 100 100 100 100 91 100 100 89 100 10
100 99 100 90 100 100 100 100 100 100 100 100 100 100 100 100 100 100 100 100 100 100 100 63 34 77 100 46 100 100 57 64 100 100 100 100 100 100 100 100 100 100 42
100 100 90 40 100 100 100 100 100 100 100 100 100 100 100 100 100 100 100 100 100 100 100 100 100 100 99 100 100 100 96 84 100 100 100 100 100 100 100 100 93 94 96
100 100 89 89 100 100 100 100 100 100 100 100 100 100 99 100 100 100 100 100 90 100 100 100 71 100 100 100 100 100 84 99 100 99 88 100 100 100 100 41 31 36 100